TimeMST,TemperatureF,Dew PointF,Humidity,Sea Level PressureIn,VisibilityMPH,Wind Direction,Wind SpeedMPH,Gust SpeedMPH,PrecipitationIn,Events,Conditions,WindDirDegrees,DateUTC
12:54 AM,51.1,24.1,35,29.38,10.0,WSW,18.4,-,N/A,,Clear,240,2013-11-16 07:54:00
1:54 AM,48.9,23.0,36,29.39,10.0,WSW,13.8,-,N/A,,Clear,240,2013-11-16 08:54:00
2:54 AM,44.1,24.1,45,29.39,10.0,SW,10.4,-,N/A,,Clear,230,2013-11-16 09:54:00
3:54 AM,46.9,26.1,44,29.36,10.0,WSW,19.6,27.6,N/A,,Clear,240,2013-11-16 10:54:00
4:54 AM,48.9,23.0,36,29.36,10.0,West,17.3,33.4,N/A,,Clear,270,2013-11-16 11:54:00
5:54 AM,48.9,21.9,35,29.37,10.0,WNW,15.0,20.7,N/A,,Clear,290,2013-11-16 12:54:00
6:54 AM,45.0,21.0,39,29.39,10.0,North,6.9,-,N/A,,Clear,10,2013-11-16 13:54:00
7:54 AM,52.0,21.0,30,29.37,10.0,NNE,6.9,-,N/A,,Clear,30,2013-11-16 14:54:00
8:54 AM,55.0,18.0,23,29.34,10.0,SW,10.4,16.1,N/A,,Clear,230,2013-11-16 15:54:00
9:54 AM,60.1,12.0,15,29.32,10.0,WSW,15.0,19.6,N/A,,Clear,250,2013-11-16 16:54:00
10:54 AM,62.1,10.0,13,29.30,10.0,WSW,18.4,28.8,N/A,,Clear,240,2013-11-16 17:54:00
11:54 AM,63.0,10.0,13,29.29,10.0,WSW,17.3,26.5,N/A,,Clear,240,2013-11-16 18:54:00
12:54 PM,61.0,15.1,17,29.29,10.0,SW,27.6,34.5,N/A,,Clear,230,2013-11-16 19:54:00
1:54 PM,61.0,16.0,17,29.29,10.0,WSW,32.2,40.3,N/A,,Clear,250,2013-11-16 20:54:00
2:54 PM,57.9,19.0,22,29.33,10.0,WSW,28.8,40.3,N/A,,Clear,240,2013-11-16 21:54:00
3:54 PM,55.9,19.9,25,29.35,10.0,West,19.6,25.3,N/A,,Clear,260,2013-11-16 22:54:00
4:54 PM,51.1,21.0,31,29.36,10.0,SW,12.7,18.4,N/A,,Clear,230,2013-11-16 23:54:00
5:54 PM,50.0,26.1,39,29.37,10.0,West,19.6,28.8,N/A,,Clear,260,2013-11-17 00:54:00
6:54 PM,50.0,24.1,36,29.40,10.0,SW,17.3,33.4,N/A,,Clear,230,2013-11-17 01:54:00
7:54 PM,50.0,26.1,39,29.38,10.0,SW,17.3,-,N/A,,Clear,230,2013-11-17 02:54:00
8:54 PM,51.1,26.1,38,29.37,10.0,WSW,24.2,29.9,N/A,,Clear,240,2013-11-17 03:54:00
9:54 PM,48.9,25.0,39,29.38,10.0,WSW,11.5,-,N/A,,Clear,250,2013-11-17 04:54:00
10:54 PM,50.0,25.0,38,29.39,10.0,West,17.3,24.2,N/A,,Clear,260,2013-11-17 05:54:00
11:54 PM,51.1,25.0,36,29.40,10.0,West,21.9,34.5,N/A,,Clear,270,2013-11-17 06:54:00